Location: G�ndlingen
(48.0142°N, 7.6396°E)
Time: 17:34:18
(UTC+00:00)

Cosmos 2151 - Pass Details

Date: 05 July 2020
Orbit: 580 x 602 km, 82.5° (Epoch: 13 August)

Event Time Altitude Azimuth Distance (km) Brightness Sun altitude
Exits shadow 23:23:47 24° 238° (WSW) 1,248 4.3 -19.3°
Maximum altitude 23:25:41 36° 286° (WNW) 955 4.1 -19.3°
Drops below altitude 10° 23:29:39 10° 354° (N) 1,943 6.8 -19.3°
Sets 23:32:01 0° 3° (N) 2,846 8.1 -19.3°
